Weather History for KHRI - December, 2012

Change the Weather History Date:

Saturday, December 8, 2012

  Actual Average Record
Temperature  
Mean Temperature 39 °F -  
Max Temperature 44 °F 40 °F 60 °F (1938)
Min Temperature 33 °F 26 °F -10 °F (1972)
Degree Days  
Heating Degree Days 26    
Moisture  
Dew Point 31 °F    
Average Humidity 74    
Maximum Humidity 92    
Minimum Humidity 62    
Precipitation  
Precipitation 0.00 in - - ()
Sea Level Pressure  
Sea Level Pressure 30.21 in    
Wind  
Wind Speed 8 mph (SW)    
Max Wind Speed 12 mph    
Max Gust Speed 17 mph    
Visibility 10 miles    
Events      
Averages and records for this station are not official NWS values.
T = Trace of Precipitation, MM = Missing Value Source: NWS Daily Summary

Daily Weather History Graph

Daily Weather History Graph

Search for Another Location

Airport or City:

Trip Planner

Search our weather history database for the weather conditions in past years. The results will help you decide how hot, cold, wet, or windy it might be!

Date:

Astronomy

Dec. 08, 2012 Rise Set
Actual Time 7:26 AM PST 4:12 PM PST
Civil Twilight 6:51 AM PST 4:46 PM PST
Nautical Twilight 6:14 AM PST 5:24 PM PST
Astronomical Twilight 5:38 AM PST 6:00 PM PST
Moon 1:42 AM PST (12/8) 12:57 PM PST (12/8)
Length of Visible Light 9h 54m
Length of Day
8h 46m
Waning Crescent, 27% of the Moon is Illuminated
Dec 8
Waning Crescent
Dec 13
New
Dec 19
First Quarter
Dec 28
Full
Jan 4
Last Quarter

Hourly Weather History & Observations

Time (PST) Temp. Windchill Dew Point Humidity Pressure Visibility Wind Dir Wind Speed Gust Speed Precip Events Conditions
12:53 AM 39.0 °F 32.3 °F 28.9 °F 67% 30.10 in 10.0 mi SW 10.4 mph - N/A   Clear
1:53 AM 37.0 °F 31.6 °F 28.9 °F 73% 30.11 in 10.0 mi South 6.9 mph - N/A   Clear
2:53 AM 39.0 °F 31.8 °F 28.9 °F 67% 30.12 in 10.0 mi SW 11.5 mph - N/A   Clear
3:53 AM 37.9 °F 30.9 °F 28.9 °F 70% 30.12 in 10.0 mi SW 10.4 mph - N/A   Clear
4:53 AM 37.9 °F 30.9 °F 30.0 °F 73% 30.13 in 10.0 mi SW 10.4 mph - N/A   Clear
5:53 AM 39.0 °F 32.3 °F 30.0 °F 70% 30.13 in 10.0 mi WSW 10.4 mph - N/A   Clear
6:53 AM 37.9 °F 34.4 °F 28.9 °F 70% 30.16 in 10.0 mi WSW 4.6 mph - N/A   Mostly Cloudy
7:53 AM 39.0 °F 34.0 °F 30.0 °F 70% 30.17 in 10.0 mi WSW 6.9 mph - N/A   Overcast
8:53 AM 39.0 °F 35.7 °F 28.9 °F 67% 30.18 in 10.0 mi West 4.6 mph - N/A   Overcast
9:53 AM 39.9 °F 36.7 °F 28.9 °F 65% 30.19 in 10.0 mi SSW 4.6 mph - N/A   Overcast
10:53 AM 42.1 °F 35.7 °F 30.0 °F 62% 30.20 in 10.0 mi West 11.5 mph 17.3 mph N/A   Partly Cloudy
11:53 AM 43.0 °F 37.2 °F 32.0 °F 65% 30.19 in 10.0 mi WSW 10.4 mph - N/A   Partly Cloudy
12:53 PM 44.1 °F 38.6 °F 33.1 °F 65% 30.19 in 10.0 mi WSW 10.4 mph - N/A   Overcast
1:53 PM 44.1 °F 39.0 °F 33.1 °F 65% 30.19 in 10.0 mi West 9.2 mph - N/A   Overcast
2:53 PM 43.0 °F 38.2 °F 34.0 °F 71% 30.20 in 10.0 mi NE 8.1 mph - N/A   Mostly Cloudy
3:53 PM 39.0 °F 34.8 °F 30.9 °F 73% 30.22 in 10.0 mi East 5.8 mph - N/A   Overcast
4:53 PM 37.9 °F - 30.9 °F 76% 30.24 in 10.0 mi Calm Calm - N/A   Overcast
5:53 PM 35.1 °F 32.2 °F 30.0 °F 82% 30.25 in 10.0 mi SSE 3.5 mph - N/A   Overcast
6:53 PM 36.0 °F 31.1 °F 30.9 °F 82% 30.27 in 10.0 mi South 5.8 mph - N/A   Overcast
7:53 PM 37.0 °F 33.3 °F 32.0 °F 82% 30.29 in 10.0 mi South 4.6 mph - N/A   Overcast
8:53 PM 36.0 °F - 32.0 °F 86% 30.30 in 10.0 mi Calm Calm - N/A   Overcast
9:53 PM 35.1 °F - 32.0 °F 89% 30.32 in 10.0 mi Calm Calm - N/A   Overcast
10:53 PM 34.0 °F - 32.0 °F 92% 30.33 in 10.0 mi Calm Calm - N/A   Partly Cloudy
11:53 PM 33.1 °F 30.0 °F 30.9 °F 92% 30.35 in 10.0 mi East 3.5 mph - N/A   Partly Cloudy